SCP
0 0 0 0 0 0 0 0 0 0 0 0 0 0 0 0 0 0 0 0 0 1 1 1 1 1 1 1 1 1 1 1 1 1 1 1 1 1 1 1 1 1 1
0 0 0 0 0 0 0 0 0 0 0 0 0 0 0 0 0 0 0 0 0 0 0 0 1 1 1 1 1 1 1 1 1 1 1 1 1 1 1 1 1 1 1
0 0 0 0 0 0 0 0 0 0 0 0 0 0 0 0 0 0 0 0 0 0 0 0 0 0 0 0 1 1 1 1 1 1 1 1 1 1 1 1 1 1 1
0 0 0 0 0 0 0 0 0 0 0 0 0 0 0 0 0 0 0 0 0 0 0 0 0 0 0 0 0 0 0 0 1 1 1 1 1 1 1 1 1 1 1
0 0 0 0 0 0 0 0 0 0 0 0 0 0 0 0 0 0 0 0 0 0 0 0 0 0 0 0 0 0 0 0 0 0 0 0 0 1 1 1 1 1 1
0 0 0 0 0 0 0 0 0 0 0 0 0 0 0 0 0 0 0 0 0 0 0 0 0 0 0 0 0 0 0 0 0 0 0 0 0 0 0 0 0 0 0
0 0 0 0 0 0 0 0 0 0 0 0 0 0 0 0 0 0 0 0 0 0 0 0 0 0 0 0 0 0 0 0 0 0 0 0 0 0 0 0 0 0 0
0 0 0 0 0 0 0 0 0 0 0 0 0 0 0 0 0 0 0 0 0 0 0 0 0 0 0 0 0 0 0 0 0 0 0 0 0 0 0 0 0 0 0
0 0 0 0 0 0 0 0 0 0 0 0 0 0 0 0 0 0 0 0 0 0 0 0 0 0 0 0 0 0 0 0 0 0 0 0 0 0 0 0 0 0 0
0 0 0 0 0 0 0 0 0 0 0 0 0 0 0 0 0 0 0 0 0 0 0 0 0 0 0 0 0 0 0 0 0 0 0 0 0 0 0 0 0 0 0
0 0 0 0 0 0 0 0 0 0 0 0 0 0 0 0 0 0 0 0 0 0 0 0 0 0 0 0 0 0 0 0 0 0 0 0 0 0 0 0 0 0 0
0 0 0 0 0 0 0 0 0 0 0 0 0 0 0 0 0 0 0 0 0 0 0 0 0 0 0 0 0 0 0 0 0 0 0 0 0 0 0 0 0 0 0
0 0 0 0 0 0 0 0 0 0 0 0 0 0 0 0 0 0 0 0 0 0 0 0 0 0 0 0 0 0 0 0 0 0 0 0 0 0 0 0 0 0 0
0 0 0 0 0 0 0 0 0 0 0 0 0 0 0 0 0 0 0 0 0 0 0 0 0 0 0 0 0 0 0 0 0 0 0 0 0 0 0 0 0 0 0
0 0 0 0 0 0 0 0 0 0 0 0 0 0 0 0 0 0 0 0 0 0 0 0 0 0 0 0 0 0 0 0 0 0 0 0 0 0 0 0 0 0 0
0 0 0 0 0 0 0 0 0 0 0 0 0 0 0 0 0 0 0 0 0 0 0 0 0 0 0 0 0 0 0 0 0 0 0 0 0 0 0 0 0 0 0
0 0 0 0 0 0 0 0 0 0 0 0 0 0 0 0 0 0 0 0 0 0 0 0 0 0 0 0 0 0 0 0 0 0 0 0 0 0 0 0 0 0 0
0 0 0 0 0 0 0 0 0 0 0 0 0 0 0 0 0 0 0 0 0 0 0 0 0 0 0 0 0 0 0 0 0 0 0 0 0 0 0 0 0 0 0
0 0 0 0 0 0 0 0 0 0 0 0 0 0 0 0 0 0 0 0 0 0 0 0 0 0 0 0 0 0 0 0 0 0 0 0 0 0 0 0 0 0 0
0 0 0 0 0 0 0 0 0 0 0 0 0 0 0 0 0 0 0 0 0 0 0 0 0 0 0 0 0 0 0 0 0 0 0 0 0 0 0 0 0 0 0
0 0 0 0 0 0 0 0 0 0 0 0 0 0 0 0 0 0 0 0 0 0 0 0 0 0 0 0 0 0 0 0 0 0 0 0 0 0 0 0 0 0 0
0 0 0 0 0 0 0 0 0 0 0 0 0 0 0 0 0 0 0 0 0 0 0 0 0 0 0 0 0 0 0 0 0 0 0 0 0 0 0 0 0 0 0
0 0 0 0 0 0 0 0 0 0 0 0 0 0 0 0 0 0 0 0 0 0 0 0 0 0 0 0 0 0 0 0 0 0 0 0 0 0 0 -0 0 0 0
0 0 0 0 0 0 0 0 0 0 0 0 0 0 0 0 0 0 0 0 0 0 0 0 0 0 0 0 0 0 0 0 0 0 0 0 0 0 0 -0 -0 0 0
0 0 0 0 0 0 0 0 0 0 0 0 0 0 0 0 0 0 0 0 0 0 0 0 0 0 0 0 0 0 0 0 0 0 0 0 0 0 0 0 0 0 0
0 0 0 0 0 0 0 0 0 0 0 0 0 0 0 0 0 -0 -0 0 0 0 0 0 0 0 0 0 0 0 0 0 0 0 0 0 0 0 0 0 0 0 0
Wind_Speed
3 3 2 1 1 1 1 1 2 4 5 6 7 7 8 7 7 6 4 10 9 7 6 7 7 8 7 7 7 7 6 6 6 6 7 7 8 8 7 7 8 8 9
4 3 3 2 1 1 2 3 4 5 5 5 7 7 7 6 6 6 6 7 12 12 10 9 7 7 8 8 8 8 7 7 7 6 6 6 7 7 8 8 8 8 8
4 3 2 2 3 4 5 5 6 5 5 5 6 6 5 6 6 6 6 5 6 11 13 12 11 9 7 7 7 8 8 8 7 7 7 6 6 7 7 7 8 8 8
3 3 3 3 4 4 4 5 4 5 4 4 4 4 4 4 6 7 7 7 6 7 10 15 15 15 13 11 10 9 8 7 7 7 7 8 8 7 7 7 7 7 7
5 5 5 5 6 5 5 4 4 3 3 3 3 4 4 5 5 7 8 8 7 7 7 11 16 16 16 15 14 13 11 11 10 9 7 7 7 7 6 6 6 6 6
8 8 7 7 7 6 5 4 5 4 3 2 3 5 5 5 5 6 6 6 6 8 7 8 7 9 14 15 14 13 12 12 12 12 11 10 8 7 6 6 5 4 4
10 8 7 7 6 5 3 3 3 5 4 2 2 3 3 4 5 4 4 5 6 6 6 6 5 4 5 11 12 12 12 12 12 12 12 13 11 9 8 8 8 6 5
9 8 8 6 6 5 4 2 2 2 3 4 2 2 2 2 3 3 3 4 4 3 4 4 3 3 2 2 6 11 11 12 12 13 13 14 14 13 12 12 11 11 10
9 8 7 6 6 5 4 3 3 4 3 3 4 3 2 1 2 2 2 2 2 2 2 3 3 3 3 3 3 6 10 11 12 13 14 15 16 16 16 16 16 16 15
8 7 7 7 6 5 5 4 4 3 4 3 2 3 2 2 1 2 3 2 3 3 4 4 4 5 6 5 6 9 12 12 13 14 15 16 17 17 18 19 20 20 20
6 7 8 7 6 5 5 5 4 4 3 3 2 2 2 1 1 2 4 4 4 4 5 5 5 6 7 6 5 9 15 15 16 17 17 17 18 18 18 19 20 21 22
5 6 7 6 5 5 5 5 4 5 3 3 2 2 2 2 2 2 4 6 7 6 5 5 6 6 6 6 8 15 18 19 18 19 19 19 19 19 19 20 21 21 21
4 5 5 5 4 4 4 4 3 3 3 3 2 2 2 2 2 2 3 5 7 5 5 4 4 5 7 5 6 16 18 19 20 20 20 20 20 20 20 21 21 22 22
4 4 5 4 4 4 4 3 3 2 2 2 1 0 1 1 2 2 3 4 7 7 5 6 4 6 6 5 9 17 12 18 19 20 20 20 20 21 21 21 21 21 22
5 5 5 4 4 4 4 3 3 3 3 3 3 3 2 2 2 2 3 3 5 10 10 6 4 4 5 7 11 10 11 16 21 21 21 21 21 21 22 22 22 22 22
5 5 5 5 5 5 5 5 5 4 5 3 2 3 3 3 4 3 3 3 4 7 9 5 6 9 11 10 15 13 13 21 21 21 21 21 21 22 23 24 24 24 24
6 6 6 6 6 6 6 6 5 5 5 4 4 4 5 5 4 4 4 5 5 5 10 11 8 8 11 13 13 13 13 12 12 19 20 20 20 20 21 22 24 25 25
6 6 6 7 7 6 5 5 5 5 5 5 5 5 7 6 7 6 5 7 7 7 8 13 11 9 11 12 13 13 12 11 11 16 20 21 20 19 17 15 16 17 18
6 6 6 6 6 5 5 5 5 4 4 5 6 7 8 8 8 7 8 8 7 8 8 11 13 10 10 10 11 12 13 11 12 13 16 17 18 19 17 15 13 12 11
6 5 6 6 5 5 5 5 5 4 5 6 6 7 7 8 9 10 8 9 9 9 10 10 11 10 10 11 10 10 10 8 9 10 13 14 17 19 18 15 13 11 8
6 6 6 5 4 3 3 4 4 4 6 7 8 8 8 12 13 10 10 9 10 9 9 9 10 10 10 10 9 7 9 8 9 9 9 9 8 8 9 12 13 13 11
6 6 5 4 3 3 5 7 6 4 6 8 9 9 10 10 12 15 17 18 17 14 12 10 10 11 12 11 9 8 8 8 7 5 5 7 6 7 8 7 11 14 12
5 5 4 4 3 3 5 7 10 6 7 8 8 9 8 9 13 10 14 18 17 19 19 13 12 12 13 11 10 9 8 8 8 6 5 7 7 9 8 8 13 14 13
4 3 4 3 2 3 5 7 11 8 8 9 9 9 9 10 10 12 13 13 13 12 14 11 10 11 11 10 9 8 9 8 7 7 6 5 5 5 5 5 9 11 12
3 3 3 3 3 4 7 9 9 7 7 10 10 9 10 10 12 16 13 12 12 11 12 13 13 12 13 12 8 5 5 5 5 5 3 3 3 2 2 2 3 6 7
3 3 4 3 3 4 8 9 9 5 7 8 9 9 11 12 15 17 12 11 11 10 10 10 9 9 8 8 7 5 5 5 5 4 2 3 3 2 2 1 2 1 2
Wind_Direction
187 192 194 175 158 146 139 74 67 79 74 63 56 54 49 46 47 47 36 33 31 16 343 316 300 288 284 284 285 282 276 270 264 256 251 250 251 252 255 256 249 241 234
186 188 183 155 113 99 99 92 91 92 82 74 62 53 49 44 44 46 42 35 37 36 29 14 351 330 316 308 303 298 288 281 275 268 260 255 251 249 247 246 244 238 233
190 186 160 113 87 85 91 92 87 81 78 73 64 52 47 45 48 47 44 41 39 42 42 39 34 22 0 335 321 309 301 291 283 274 267 260 255 252 249 244 239 235 230
167 144 115 97 92 87 84 88 81 75 65 72 76 55 46 49 59 59 57 52 48 43 40 45 46 44 39 31 18 4 351 338 324 303 284 272 265 258 250 243 240 234 227
112 102 92 84 81 75 65 73 58 69 62 63 86 66 51 57 57 66 62 56 52 49 45 43 45 44 41 36 30 23 15 8 2 348 321 297 283 269 251 237 231 227 223
98 98 92 84 80 74 62 62 72 58 51 32 71 71 57 58 58 57 60 58 54 53 51 47 39 34 34 29 23 16 9 2 358 353 343 326 309 283 257 232 219 213 211
102 100 98 89 88 90 98 106 89 68 39 0 81 66 46 49 58 48 49 58 54 49 49 45 39 31 19 20 12 5 359 353 346 339 334 332 325 303 268 246 233 226 224
105 105 107 107 107 109 106 99 116 105 46 20 80 86 43 14 17 24 21 47 43 32 35 28 19 10 357 353 347 350 345 340 333 327 322 319 315 305 286 262 248 238 229
100 104 110 112 113 110 106 97 107 121 116 46 44 107 115 249 318 332 331 354 356 353 338 315 306 303 290 287 294 313 318 317 313 310 309 307 303 298 291 277 263 251 242
104 110 112 111 113 115 116 109 99 114 122 110 63 51 87 143 161 320 309 303 307 293 289 287 290 284 273 264 264 283 294 296 297 298 297 296 293 291 287 282 273 264 255
104 111 114 118 121 122 120 115 113 108 107 122 125 119 102 80 131 204 279 293 287 266 267 271 274 277 276 268 265 273 287 294 293 290 288 287 285 283 282 280 277 270 263
101 110 117 117 121 123 123 124 124 123 123 125 135 148 162 183 212 212 260 289 296 290 279 269 271 277 282 281 283 297 300 300 297 291 286 283 280 278 278 277 274 273 269
116 118 118 119 123 128 132 130 122 123 131 135 160 183 197 213 205 211 254 283 290 295 289 278 268 278 285 289 298 304 302 301 297 293 288 283 279 278 277 276 276 274 272
125 126 125 126 127 129 125 109 88 83 83 80 70 90 242 258 222 224 245 282 294 288 276 278 289 277 283 292 294 300 296 296 297 293 289 285 281 278 275 274 274 274 274
119 122 119 108 96 91 95 92 75 65 65 57 49 38 12 330 309 279 257 248 277 295 296 282 274 280 285 292 287 291 289 292 294 291 287 283 280 278 276 273 271 270 269
103 109 100 93 87 84 87 86 81 77 74 54 38 21 352 322 314 305 289 272 257 274 288 277 273 283 289 292 293 295 294 294 293 291 286 282 280 278 275 272 268 264 261
92 92 93 91 88 87 91 93 87 73 62 36 15 354 327 314 305 301 292 281 272 263 281 290 279 280 280 284 289 289 289 288 285 284 285 284 282 281 279 274 267 262 257
82 89 96 97 97 95 91 87 74 55 38 11 349 334 320 319 307 298 291 284 279 268 273 291 295 289 281 280 279 279 283 282 282 283 284 283 281 283 285 288 282 267 257
88 91 95 97 96 92 82 70 60 39 15 347 328 318 312 310 304 301 296 289 282 280 272 283 293 293 288 285 284 280 279 278 279 280 280 280 280 281 283 283 289 285 264
87 83 84 87 86 81 71 56 41 20 351 330 318 310 307 303 296 297 297 293 292 289 286 285 291 297 295 292 285 286 287 277 277 281 280 278 275 275 274 271 270 270 266
77 80 82 77 71 72 65 54 27 0 337 325 322 319 314 312 314 313 309 305 301 295 294 294 296 296 294 295 290 285 286 287 281 271 271 270 269 267 268 265 263 260 253
66 66 65 66 57 57 57 43 23 353 334 327 324 323 318 315 318 318 314 311 310 307 305 298 293 291 293 292 289 286 287 287 285 258 250 267 260 262 261 253 253 254 248
64 59 47 49 48 43 52 24 5 353 333 325 319 318 317 314 317 311 313 314 310 303 298 294 291 290 291 292 289 286 279 277 276 271 262 270 264 262 259 255 253 249 246
60 50 36 31 28 11 7 358 350 347 333 325 318 311 307 307 310 318 320 312 307 302 297 296 288 290 294 295 289 285 286 284 276 274 264 272 267 263 267 254 251 249 247
56 46 35 26 16 346 345 346 350 338 330 325 319 315 312 312 314 321 322 312 308 307 310 305 300 299 300 303 306 301 302 306 306 300 285 272 290 290 285 281 269 255 245
63 51 34 13 358 336 335 344 349 337 329 326 321 320 320 319 320 323 321 312 312 317 316 314 312 314 317 319 318 314 314 313 312 300 330 320 306 320 313 310 288 261 235